Regional Weather Roundup
Issued by NWS Midland/Odessa, TX

Current Version | Previous Version | Text Only | Print | Product List | Glossary On
Versions: 1 2 3 4 5 6 7 8 9 10 11 12 13 14 15 16 17 18 19 20 21 22 23 24 25 26 27 28 29 30 31 32 33 34 35 36 37 38 39 40 41 42 43 44 45 46 47 48 49 50
000
ASUS44 KMAF 051910
RWRMAF
MIDLAND AREA WEATHER ROUNDUP
NATIONAL WEATHER SERVICE MIDLAND TX
100 PM CST MON DEC 05 2016

...IN SOUTHWEST TEXAS AND SOUTHEAST NEW MEXICO...

CITY           SKY/WX    TMP DP  RH WIND       PRES   REMARKS
ALPINE         SUNNY     56  33  41 SW14G20   29.91F
ANDREWS        FAIR      56  38  50 SW13      29.78F
ARTESIA        SUNNY     52  39  62 SE13      29.76F
BIG SPRING     MOSUNNY   54  42  65 S13       29.80F
CARLSBAD       SUNNY     52  38  58 SE7       29.77F
DRYDEN           N/A     53  47  79 SW17G23   29.83F
FORT STOCKTON  SUNNY     60  44  55 W8        29.81F
GUAD PASS      SUNNY     47  30  51 SW35      29.85F WCI  37
HOBBS          SUNNY     55  36  47 SW12      29.78F
MARFA          SUNNY     53  32  44 W20G28    29.90F
MIDLAND AIRPK  SUNNY     55  42  61 S9        29.80F
MIDLAND INTL   SUNNY     54  41  61 S12       29.79F
ODESSA         SUNNY     56  39  53 W12       29.80F
PECOS          SUNNY     61  37  41 W16G23    29.79F
PRESIDIO       FAIR      56  44  64 SW6       29.91F
SEMINOLE       SUNNY     57  36  45 SW14      29.77F
SNYDER         CLOUDY    52  38  59 SW12G18   29.77F
WINK           SUNNY     57  38  48 SW10      29.78F
$$
...OTHER STATIONS IN TEXAS...

CITY           SKY/WX    TMP DP  RH WIND       PRES   REMARKS
ABILENE        LGT RAIN  45  44  97 S9        29.79F
AMARILLO       SUNNY     60  28  29 S20       29.62F
AUSTIN         LGT RAIN  51  49  92 NW6       29.81F FOG
BROWNSVILLE    CLOUDY    61  53  75 NW12      29.86F
CORPUS CHRISTI CLOUDY    57  52  83 NW14      29.84F
DALLAS FTW     CLOUDY    53  43  68 CALM      29.80F
DEL RIO        CLOUDY    55  48  77 W8        29.85F
EL PASO        MOSUNNY   54  28  36 SW20G25   29.89F
HOUSTON INT    CLOUDY    53  51  93 W6        29.76F
LUBBOCK        MOSUNNY   58  34  40 SW15      29.70F
SAN ANGELO     CLOUDY    47  45  93 W7        29.82F
SAN ANTONIO    CLOUDY    53  49  86 W6        29.83F
WACO           LGT RAIN  49  48  97 NW7       29.82F VSB 1
WICHITA FALLS  NOT AVBL
$$
...OTHER LOCATIONS IN NEW MEXICO...

CITY           SKY/WX    TMP DP  RH WIND       PRES   REMARKS
ALAMAGORDO     NOT AVBL
ALBUQUERQUE    CLOUDY    44  16  32 S7        29.86F
CANNON AFB     SUNNY     57  24  27 W20       29.66F
CLOVIS         SUNNY     59  25  27 W22G29    29.66F
HOLLOMAN AFB   SUNNY     52  28  40 S8        29.90F
ROSWELL        SUNNY     49  33  54 SE5       29.74F
RUIDOSO        SUNNY     52  14  22 W24G35    29.85F
SANTA FE       SUNNY     48  15  26 SW15      29.80F
TRUTH OR CONSE SUNNY     51  21  30 S10       29.85F
TUCUMCARI      SUNNY     65  16  15 W25       29.61F
$$




USA.gov is the U.S. government's official web portal to all federal, state and local government web resources and services.